Location: ??????????
(54.7560°N, 39.1389°E)
Time: 07:59:40
(UTC+00:00)

Cosmos 1743 - Pass Details

Date: 19 May 2025
Orbit: 431 x 441 km, 82.5° (Epoch: 23 June)

Event Time Altitude Azimuth Distance (km) Brightness Sun altitude
Rises 18:41:22 0° 340° (NNW) 2,463 7.8 -8.0°
Reaches altitude 10° 18:43:37 10° 328° (NNW) 1,584 6.9 -8.2°
Maximum altitude 18:46:36 28° 269° (W) 883 4.3 -8.4°
Drops below altitude 10° 18:49:33 10° 209° (SSW) 1,567 4.9 -8.7°
Enters shadow 18:51:35 - 198° (SSW) 2,359 5.7 -8.9°
